Simultaneous Nadir Overpasses (SNOs) Predictions

Prediction of SNOs between GOES-16 and TERRA Satellite Orbit:

Table of predicted SNOs for the next 14.0 days since TLE Epoch: 1/6/2024
Index Date Time (GOES-16) GOES-16 Lat,Lon TERRA Lat,Lon Distance(km) Time Diff (sec)
1 01/08/2024 02:51:51 0.02, -75.21 0.23, -74.29 103.98 80
2 01/08/2024 15:14:34 -0.01, -75.23 0.80, -79.17 447.12 80
3 01/10/2024 14:55:03 -0.02, -75.24 -0.08, -75.10 15.99 80
4 01/12/2024 14:40:51 -0.02, -75.25 -0.91, -71.03 479.03 80
5 01/13/2024 03:01:02 0.02, -75.23 -0.15, -75.94 81.46 80
6 01/15/2024 02:41:30 0.02, -75.24 0.70, -71.87 383.17 80
7 01/15/2024 15:04:13 -0.01, -75.27 0.31, -76.74 167.29 80
8 01/17/2024 14:44:41 -0.01, -75.30 -0.56, -72.67 298.40 80
9 01/18/2024 03:07:33 0.01, -75.28 -0.49, -77.58 261.42 80
10 01/20/2024 02:48:01 0.02, -75.32 0.40, -73.52 204.61 80
